GFSFLT1_850_thetae_000.txt.gz
Theta_e
346 345 347 348 346 344 344 348 349 347 341 343 337 337 348 324 323 319 321 320 321 325 331 326 325 329 328 328 324 329 332 331 331
343 344 346 346 345 343 344 345 346 346 342 340 340 340 328 324 326 320 321 325 330 333 332 325 328 328 331 330 325 324 330 332 333
339 343 345 346 345 344 343 343 343 345 344 340 340 337 326 323 328 325 321 322 328 324 319 323 327 328 325 327 328 325 326 328 329
338 341 343 345 345 344 344 343 345 344 346 346 344 344 328 325 331 329 326 327 321 321 322 323 324 327 327 324 321 326 328 328 328
341 339 342 343 344 344 344 344 346 344 347 347 346 349 329 325 332 330 328 326 323 320 320 322 322 324 323 325 325 326 325 326 327
341 340 339 342 343 344 344 344 345 345 346 347 348 349 330 327 332 330 327 322 321 319 319 319 321 324 325 325 326 326 329 329 331
339 339 341 340 342 343 343 343 343 344 345 347 349 348 338 330 330 330 329 323 321 319 319 321 325 327 328 329 327 328 329 329 331
338 341 342 341 341 343 343 344 346 347 346 346 348 347 341 335 330 333 331 326 323 322 320 323 327 329 330 330 327 327 330 328 328
338 338 339 341 341 342 343 345 345 345 345 345 349 348 343 337 331 334 332 326 323 323 321 325 331 330 329 327 324 326 330 329 326
335 335 336 338 347 345 346 346 345 347 347 348 350 348 344 339 336 332 333 328 321 322 322 325 332 331 329 328 326 328 329 328 327
334 334 333 333 333 338 345 347 349 350 350 350 351 347 342 337 336 333 334 329 320 321 324 327 331 332 331 329 327 326 328 328 327
332 331 332 331 332 334 334 345 350 351 352 351 351 346 339 337 334 334 335 326 321 323 328 331 334 333 324 331 330 328 325 326 327
332 334 334 333 332 330 329 338 348 351 352 352 349 344 339 337 333 335 332 322 323 327 332 336 335 334 331 328 329 328 327 326 325
336 335 333 333 332 332 329 338 345 351 351 351 349 344 339 336 335 334 327 327 329 333 337 336 335 333 327 325 327 327 325 325 324
332 336 338 337 335 332 333 340 347 350 349 345 342 338 337 338 338 338 339 334 336 336 335 334 333 330 323 325 325 326 324 325 324
329 328 326 335 339 335 346 349 349 348 342 341 340 340 340 337 334 331 333 336 335 337 334 333 331 324 325 326 327 326 325 323 322
333 333 327 327 339 339 343 349 348 346 343 343 341 338 335 333 330 326 327 331 334 333 333 331 328 324 322 325 326 324 323 322 321
336 337 338 340 344 345 349 348 346 343 340 338 335 330 325 325 325 324 327 332 335 332 328 328 327 324 325 325 323 321 321 320 318
342 341 343 346 347 346 344 341 337 333 325 325 324 325 325 322 323 326 330 331 331 329 327 326 325 325 325 322 321 320 319 319 317
336 339 341 345 342 338 334 334 335 329 328 329 327 327 324 323 329 329 330 328 328 327 325 325 324 325 324 322 321 318 317 317 314

GFSFLT1_850_thetae_003.txt.gz
Theta_e
345 347 348 350 349 350 350 344 343 341 339 332 333 334 327 328 325 321 316 317 326 326 322 320 322 325 329 330 327 324 326 328 329
342 345 346 348 349 349 350 346 341 338 339 336 333 331 330 330 332 323 318 318 317 317 323 327 325 324 324 328 328 325 322 325 328
339 344 345 347 348 348 348 347 339 339 341 340 337 331 332 330 339 326 320 321 320 322 327 328 322 324 328 324 325 326 325 321 324
339 343 344 345 346 346 346 347 344 337 343 345 343 337 338 337 341 326 325 320 319 319 319 318 321 323 325 325 322 319 321 326 328
338 340 343 344 345 346 347 347 345 340 341 344 345 345 340 342 342 326 329 323 321 319 319 320 321 322 322 322 323 324 325 324 326
338 339 341 342 344 345 345 346 345 343 342 342 345 347 345 346 344 328 330 326 323 322 319 319 319 319 319 320 321 323 325 328 329
339 339 339 339 342 343 343 344 345 345 344 344 345 347 347 346 347 332 329 329 324 321 320 319 319 321 322 322 323 325 327 329 329
338 340 340 339 339 340 341 342 344 345 345 345 345 346 348 347 347 336 327 330 323 321 320 319 320 323 324 326 327 326 324 325 327
337 336 337 338 338 339 340 340 341 342 343 344 346 347 347 349 347 336 329 330 326 323 321 320 320 324 326 328 327 325 323 324 327
335 337 338 338 338 338 338 339 340 341 342 345 345 347 350 349 340 338 331 330 331 323 320 321 321 325 328 327 326 327 327 328 328
336 337 338 339 339 339 338 341 342 342 343 345 345 348 350 350 345 338 332 332 332 325 320 321 324 324 329 331 331 331 329 328 326
337 336 334 333 331 328 327 330 335 343 347 347 347 349 350 347 343 342 333 333 330 320 320 321 328 327 330 330 328 329 326 327 326
334 333 332 330 330 330 330 329 332 339 346 350 350 349 349 348 344 340 332 332 331 325 325 323 332 332 333 332 330 328 325 327 328
333 336 335 333 332 331 330 331 331 332 344 348 350 350 349 344 341 338 336 337 337 336 334 332 335 333 330 330 330 325 325 326 324
331 330 331 332 336 337 334 334 333 332 342 348 350 350 348 345 340 339 338 336 335 334 328 327 334 330 330 330 325 322 324 325 324
328 326 327 328 326 326 331 339 334 335 345 349 348 346 345 341 339 335 334 332 328 327 329 326 331 330 328 324 322 323 326 325 324
332 330 329 327 327 329 332 339 344 347 348 346 344 342 341 340 339 336 332 331 326 325 328 331 331 328 328 324 324 325 325 323 321
331 330 330 332 336 342 344 346 345 344 343 342 340 339 334 327 324 324 328 329 326 325 331 329 328 328 327 324 325 324 322 320 320
340 340 340 338 341 343 345 343 342 340 338 336 331 325 322 325 325 327 328 324 327 331 332 330 328 326 325 324 323 322 322 321 320
335 340 342 341 337 341 343 341 338 336 333 332 326 328 330 328 327 323 321 326 329 327 328 327 326 325 325 324 323 322 320 318 317

GFSFLT1_850_thetae_006.txt.gz
Theta_e
343 345 347 347 348 347 349 348 349 342 338 331 331 332 328 326 329 324 323 321 318 324 329 327 319 320 322 326 324 324 322 326 329
342 344 346 347 348 348 350 349 348 340 334 329 328 328 326 327 327 328 322 319 316 320 321 318 321 323 321 324 326 327 326 324 324
341 342 345 347 348 348 349 348 347 346 338 328 327 329 327 328 327 327 325 321 318 317 317 321 323 324 322 324 324 323 324 324 321
339 340 343 345 346 347 349 348 348 348 343 337 329 328 329 330 332 336 335 325 319 319 319 320 322 319 321 322 324 321 319 318 323
336 338 340 342 344 345 347 348 348 348 347 342 338 333 337 335 335 336 343 329 322 320 318 318 319 319 320 322 323 322 323 322 322
337 337 338 341 343 344 345 346 347 347 348 347 342 341 343 346 343 342 343 336 326 321 319 318 320 320 319 320 321 321 320 321 323
336 337 338 339 341 342 342 343 345 346 347 347 347 342 343 346 348 345 345 341 328 326 321 320 320 319 319 320 321 320 319 320 323
336 336 337 339 340 340 341 342 343 344 346 347 347 346 342 341 345 348 347 344 330 326 323 322 322 320 321 322 323 321 320 322 323
338 338 338 338 338 339 339 339 339 341 343 344 346 346 345 345 346 348 348 340 340 332 326 324 321 320 323 324 325 322 323 324 325
339 339 339 339 339 338 337 337 337 339 340 343 344 345 346 347 349 350 348 335 335 338 327 320 319 321 325 324 326 323 327 329 328
337 338 338 339 336 336 336 337 338 338 339 340 341 343 345 348 350 349 347 337 335 335 331 324 325 326 326 323 327 326 330 332 331
333 335 336 335 337 338 330 328 332 334 336 341 343 344 345 347 348 349 346 338 332 336 336 332 333 331 330 328 327 329 329 328 330
334 335 337 336 330 329 328 328 329 328 331 339 340 344 346 348 348 349 346 342 333 336 338 338 335 334 332 331 331 332 330 330 326
332 332 332 332 333 332 333 331 332 332 332 332 337 343 348 348 348 349 345 339 338 338 337 337 332 331 325 327 328 328 330 329 324
328 328 328 328 327 326 326 326 331 334 334 339 335 344 348 347 347 346 342 339 338 337 335 334 330 327 328 327 326 330 328 324 321
330 330 330 329 328 327 326 326 331 326 340 339 344 347 346 344 342 341 339 337 334 333 331 328 326 325 326 329 329 329 322 321 324
330 331 331 332 332 332 332 332 340 342 345 345 346 344 342 341 338 336 332 328 327 329 329 328 325 328 327 327 329 324 323 324 324
336 338 335 332 331 330 335 338 343 344 345 344 341 339 339 337 339 337 335 332 330 327 327 325 324 326 327 328 328 325 324 324 322
337 337 335 336 332 333 332 332 336 341 341 339 337 334 331 332 335 331 330 329 330 328 326 323 325 325 328 327 325 324 323 322 321
324 326 331 336 335 331 335 338 340 340 339 338 337 334 332 330 326 326 326 328 327 325 325 325 326 327 325 324 323 323 322 320 319

GFSFLT1_850_thetae_009.txt.gz
Theta_e
344 344 344 345 345 344 346 346 346 347 346 345 342 341 340 340 339 334 325 326 326 322 324 324 326 320 322 326 328 325 323 324 326
344 344 345 346 345 345 346 346 345 346 347 341 335 334 336 337 336 333 326 324 324 319 321 324 322 319 321 322 324 324 325 324 324
343 345 346 346 346 345 346 346 345 344 345 339 329 331 331 332 333 328 327 325 323 318 318 319 318 320 324 322 322 323 325 324 325
342 344 345 346 348 345 345 346 347 346 345 343 336 328 328 331 333 328 328 330 324 320 318 318 318 320 323 321 322 322 319 320 319
340 344 342 347 348 347 345 346 348 348 348 346 341 330 327 329 330 327 327 325 337 323 320 319 319 319 319 319 320 321 321 320 323
339 341 344 346 347 348 348 346 347 348 348 347 346 346 338 332 331 331 330 331 332 330 324 321 321 319 318 319 320 320 320 319 322
339 339 341 344 346 344 342 342 344 345 347 349 349 348 347 343 337 333 331 332 340 336 329 321 320 318 319 319 320 320 319 320 322
339 340 341 341 339 339 340 341 342 343 345 347 349 349 348 348 346 343 346 348 347 340 332 328 325 321 320 321 321 321 321 322 323
340 339 338 337 337 338 338 339 340 341 343 344 346 347 347 348 349 349 348 349 348 342 332 330 332 330 327 326 323 322 324 324 324
341 338 337 337 338 338 339 339 340 341 341 342 343 343 344 345 347 348 349 349 348 339 335 331 332 330 331 323 328 323 326 324 326
340 339 338 338 337 338 338 338 338 338 338 338 339 340 342 344 345 347 348 348 347 341 338 334 330 334 324 328 332 327 327 329 329
334 335 337 337 338 338 338 336 333 333 332 333 335 337 340 342 344 346 348 348 346 340 338 334 336 327 327 333 332 330 327 326 328
333 334 334 336 337 333 329 328 327 328 329 330 331 334 340 345 347 347 348 348 346 340 335 334 335 334 335 333 332 329 327 325 325
334 335 338 337 333 331 330 330 331 332 332 331 333 337 339 345 348 348 348 348 344 338 335 335 335 330 335 330 324 329 327 326 326
329 329 328 328 329 329 329 330 330 330 333 334 336 337 343 347 348 347 347 347 344 338 333 335 331 329 331 328 327 327 327 327 328
332 332 331 332 331 331 330 329 328 327 328 330 332 339 346 346 346 345 346 345 341 337 336 328 331 328 325 328 326 328 328 328 325
334 334 333 330 328 329 331 329 329 330 331 339 341 344 346 344 343 342 341 339 337 337 335 330 326 328 325 325 326 326 328 325 324
337 335 333 330 327 326 329 332 336 338 342 345 345 343 341 340 340 339 337 336 333 330 329 328 329 326 326 324 325 326 327 326 325
325 329 335 335 333 331 331 331 335 338 340 342 341 340 338 336 335 335 335 332 330 329 329 328 327 327 327 324 327 327 325 324 323
321 322 323 325 336 333 333 333 333 336 338 339 338 336 335 333 334 333 332 331 330 327 327 327 325 327 324 326 326 323 322 321 321

GFSFLT1_850_thetae_012.txt.gz
Theta_e
346 346 342 343 344 345 348 349 350 351 351 344 345 345 345 344 345 353 351 350 343 341 340 339 341 326 327 324 337 336 325 333 335
344 346 343 343 343 345 347 348 349 349 349 342 343 345 344 343 343 344 350 350 342 342 340 339 341 324 325 334 335 326 330 333 335
343 345 345 342 344 344 346 347 348 350 351 350 344 345 339 341 341 338 339 342 331 329 335 323 336 327 319 326 329 324 325 334 335
341 344 346 345 344 345 347 347 347 349 351 353 351 345 336 338 340 337 333 331 324 324 322 319 319 321 324 319 324 329 330 330 331
337 341 345 347 347 346 347 348 347 348 349 350 350 335 331 333 339 335 335 328 327 327 325 321 319 321 322 324 328 334 331 331 330
339 342 345 347 348 349 349 348 349 350 351 350 349 349 348 343 340 344 337 329 332 332 330 324 320 319 320 324 322 331 334 334 333
338 344 345 347 348 350 351 350 351 351 352 352 352 352 354 353 344 343 346 338 337 332 333 330 321 323 322 325 321 323 324 333 332
339 344 345 347 348 350 352 352 352 353 354 354 353 354 355 356 357 356 354 351 339 337 340 338 325 323 333 333 323 322 323 322 331
336 345 345 347 349 351 354 354 355 355 355 355 356 356 357 357 358 358 353 353 348 343 342 344 329 327 329 332 330 319 321 322 331
338 343 345 346 348 350 353 354 355 355 355 354 355 355 357 357 359 357 353 351 349 347 346 346 340 333 332 334 331 320 324 325 325
334 343 345 346 347 349 352 352 353 353 351 343 346 348 351 355 356 354 352 348 347 347 347 346 337 333 335 333 331 326 321 329 326
340 343 346 347 347 350 351 349 350 346 346 340 339 339 340 342 343 350 348 346 346 346 345 344 339 335 333 332 331 333 324 330 327
338 341 345 346 345 346 343 345 345 342 342 335 337 335 336 339 345 350 347 347 347 346 345 343 337 334 334 334 333 327 330 332 330
341 342 344 345 346 347 346 344 342 342 346 348 345 335 334 337 346 349 348 348 348 346 343 339 336 336 336 334 330 324 332 327 321
346 347 347 347 347 345 342 344 346 348 347 337 333 333 337 339 341 348 349 349 348 345 341 338 338 336 336 336 327 332 325 322 324
342 341 340 341 342 344 343 345 341 333 328 328 328 329 337 339 346 348 347 347 346 343 340 338 337 336 335 334 328 328 326 325 327
342 342 342 342 342 333 328 328 328 329 329 330 333 335 339 346 347 345 345 344 342 340 339 337 339 336 334 330 330 330 327 328 327
342 342 342 340 336 325 325 325 325 328 333 339 344 345 347 346 344 344 344 341 339 339 337 337 336 334 329 327 327 327 329 329 329
339 343 344 344 332 331 330 333 336 338 342 345 345 343 344 343 342 341 339 337 337 336 334 332 330 328 327 326 325 327 327 327 326
326 321 331 342 341 338 339 340 336 337 338 340 343 342 341 337 337 337 336 334 332 331 329 328 328 327 326 327 326 327 326 324 322

GFSFLT1_850_thetae_015.txt.gz
Theta_e
341 346 347 344 344 346 347 348 350 352 354 355 351 355 355 354 352 354 351 351 349 345 344 344 344 344 344 336 342 341 341 337 336
338 345 347 345 343 344 346 347 350 352 353 355 351 356 353 353 355 352 351 349 347 349 343 342 343 347 340 340 339 341 338 334 338
338 342 346 346 344 344 345 347 349 351 353 355 353 354 353 353 352 353 345 351 350 348 344 340 342 344 336 335 339 341 333 336 337
337 340 345 346 344 344 345 346 347 349 351 353 353 353 353 352 352 354 345 341 346 347 343 344 342 342 341 337 339 339 338 334 335
337 337 342 345 345 345 345 345 345 347 349 350 353 353 352 349 347 349 351 341 351 349 331 342 334 331 334 332 336 336 329 337 336
335 338 339 344 346 345 346 346 345 345 347 347 350 352 352 351 346 343 340 348 346 350 336 333 332 327 325 323 323 326 329 331 325
336 336 344 343 346 346 346 347 347 346 346 346 348 351 351 352 349 343 349 350 351 352 344 334 332 328 322 320 320 332 330 332 323
334 334 341 346 347 349 350 349 350 349 347 348 349 349 350 351 351 353 353 352 354 353 350 344 337 330 325 320 322 331 331 331 323
334 334 335 346 348 349 353 352 353 353 351 352 352 353 352 353 355 354 353 354 355 354 353 351 345 340 332 322 323 332 332 332 322
334 334 334 339 347 350 352 353 356 355 356 354 355 354 358 356 359 358 358 357 356 355 354 352 347 344 337 323 324 331 331 333 321
333 334 334 335 345 349 352 355 355 355 358 357 357 358 357 359 358 361 360 360 358 356 355 352 348 344 340 326 326 330 332 334 322
332 333 334 336 346 348 352 355 355 357 358 359 359 359 359 359 360 360 362 360 356 355 354 352 348 344 343 331 331 329 334 332 325
332 337 337 339 347 349 353 355 356 358 358 359 359 359 360 359 359 359 359 357 356 354 352 349 346 345 340 337 335 334 335 332 328
335 339 339 348 349 351 355 355 354 356 356 356 355 354 356 357 358 358 358 355 356 352 349 347 346 343 340 338 338 338 333 333 328
343 343 345 349 350 352 354 353 354 354 352 350 351 353 355 358 359 357 356 355 353 350 349 347 346 342 338 337 339 337 334 329 325
348 349 348 349 351 352 351 350 351 351 353 352 353 355 356 359 357 355 355 354 352 347 347 345 342 340 340 340 338 337 329 330 331
347 349 350 351 351 352 353 354 355 359 351 353 356 358 354 350 353 353 349 349 348 345 344 343 341 343 340 338 337 334 331 330 327
344 343 344 346 348 350 352 353 353 352 353 355 353 344 343 349 351 348 345 344 343 341 340 340 340 339 339 338 336 333 331 327 328
344 343 343 344 346 348 351 351 351 351 352 350 347 347 347 346 344 344 342 341 339 340 338 339 338 337 336 334 328 327 326 325 327
333 340 343 343 345 346 348 349 349 349 349 349 349 348 347 345 345 342 341 341 339 337 335 334 335 331 328 328 328 326 325 328 327

GFSFLT1_850_thetae_021.txt.gz
Theta_e
345 346 344 343 342 346 347 348 349 350 351 351 351 352 352 348 351 351 347 352 354 348 347 346 338 335 328 328 324 318 324 324 320
343 343 347 345 344 345 347 348 348 350 352 352 351 352 353 350 347 349 346 350 351 351 348 343 344 345 344 341 329 319 322 323 321
342 342 345 347 345 344 345 346 346 349 351 352 352 352 353 352 345 348 346 347 349 353 352 346 347 346 345 345 342 324 322 324 324
340 342 343 348 347 345 345 347 347 348 351 353 354 353 352 353 350 344 347 345 346 350 352 346 345 346 345 344 342 333 322 324 322
340 340 345 348 348 347 347 347 349 348 349 351 352 353 352 351 351 344 342 343 342 345 349 350 347 344 345 344 342 340 325 323 322
340 339 345 348 348 349 348 348 349 349 348 349 351 352 352 352 351 348 338 337 333 336 342 346 349 348 345 342 340 339 337 325 324
339 340 339 348 348 348 349 349 349 350 350 349 349 350 351 352 351 345 335 333 331 334 334 346 349 347 344 343 341 340 339 333 326
338 337 338 345 348 347 348 348 348 349 350 350 348 349 350 349 347 347 342 337 334 332 339 340 344 347 347 346 344 342 338 334 329
337 336 343 344 349 347 346 346 346 348 349 350 348 348 347 348 351 351 347 342 340 341 339 343 346 348 350 350 347 346 343 339 335
336 336 338 343 344 347 346 346 345 346 346 349 349 347 348 347 351 351 349 348 348 349 349 350 351 352 352 352 351 350 348 345 340
334 331 339 340 338 340 348 347 346 346 347 348 349 347 347 347 346 348 350 351 350 352 354 353 353 355 356 357 356 354 353 348 343
330 329 334 334 341 339 342 345 350 347 347 348 348 348 346 347 347 347 350 351 353 353 354 355 356 356 357 357 356 355 351 348 343
336 332 330 330 336 337 340 343 346 351 351 348 348 347 347 346 348 348 349 352 353 354 356 356 357 358 358 356 354 353 350 346 343
334 336 333 331 334 333 335 338 345 350 355 352 350 347 349 348 348 349 351 352 354 356 357 358 358 358 357 354 351 348 346 344 341
332 335 341 334 332 329 329 333 341 348 356 355 352 350 352 351 353 356 356 359 359 359 359 358 359 356 352 349 347 344 343 341 338
350 347 345 340 334 333 334 336 346 349 355 358 360 356 355 361 362 364 365 366 361 358 361 359 353 351 347 345 343 341 340 339 339
354 354 355 357 356 358 360 355 354 354 358 358 362 362 362 365 364 365 365 364 360 361 358 353 349 348 346 343 341 340 340 340 339
354 356 357 357 356 358 359 360 361 362 361 362 362 363 364 363 362 361 361 360 359 356 351 349 347 345 343 340 340 341 339 338 335
349 351 351 356 359 359 360 360 361 361 360 360 361 361 356 358 358 358 357 356 352 350 347 345 343 342 341 340 340 338 336 333 329
346 347 349 351 350 358 359 359 359 359 357 356 354 352 351 353 355 352 353 347 346 345 345 342 341 340 341 340 337 336 332 328 326

GFSFLT1_850_thetae_024.txt.gz
Theta_e
341 340 342 343 343 344 345 346 346 346 346 347 348 349 349 350 350 347 343 347 350 345 345 347 347 346 346 338 336 330 319 324 322
341 340 340 342 343 344 344 345 346 346 347 347 348 349 349 350 351 347 342 348 347 346 349 348 346 345 335 330 331 326 318 321 322
342 342 341 341 341 342 344 344 345 346 347 347 348 348 349 350 351 349 342 348 346 350 350 349 348 342 340 344 336 336 325 319 322
343 343 343 342 341 341 342 343 346 346 347 348 348 348 349 350 350 351 343 342 345 349 351 351 349 348 342 345 345 344 341 326 321
343 344 343 344 344 342 343 345 346 345 346 347 348 348 349 350 350 351 347 341 342 347 349 351 349 349 344 345 346 345 343 340 324
339 340 340 342 345 343 344 345 346 345 346 346 347 349 350 350 350 351 350 341 340 341 346 348 351 350 346 344 344 344 343 341 338
340 339 340 340 345 345 345 345 345 346 346 345 346 349 351 350 350 349 348 343 338 336 340 346 348 349 349 347 346 344 343 341 340
339 339 339 341 345 345 346 346 346 346 346 346 345 348 349 350 349 348 347 345 341 337 336 340 344 349 349 348 348 347 346 344 342
336 339 339 337 342 345 347 347 347 347 347 346 347 348 348 348 349 349 348 346 343 339 336 336 338 341 341 346 348 346 346 346 345
336 336 338 339 343 343 346 347 347 347 347 347 348 348 348 348 347 347 347 345 345 342 337 336 338 341 342 347 349 347 349 350 348
336 334 333 341 343 345 347 347 347 347 348 348 348 349 348 348 348 346 344 343 342 343 343 342 341 343 343 344 345 346 350 352 351
331 333 334 335 340 345 345 347 347 347 348 349 350 350 348 348 347 347 345 342 339 344 348 348 347 345 347 349 350 352 353 355 352
333 329 333 333 334 342 347 344 345 347 347 347 347 347 346 346 347 347 346 343 345 346 348 349 351 350 351 353 355 355 355 357 355
334 334 332 332 330 333 336 343 346 346 345 346 345 345 346 350 348 348 346 347 348 349 349 352 354 354 354 355 355 355 355 356 352
332 333 331 334 335 331 335 335 337 338 347 344 344 346 348 350 350 349 350 349 350 351 353 354 355 355 354 356 356 357 354 350 344
348 341 339 337 332 334 331 331 334 337 343 344 347 348 348 349 350 350 350 350 352 354 354 355 355 353 337 355 353 348 345 343 341
347 349 352 346 339 335 333 332 332 336 333 336 347 350 350 350 349 350 351 352 352 353 355 356 356 349 355 352 347 344 342 340 338
352 354 358 360 360 356 356 350 333 334 338 347 352 353 352 354 353 357 358 358 359 358 358 354 353 354 350 346 344 343 340 339 339
350 350 351 353 352 350 356 360 361 353 353 356 357 355 354 357 361 363 364 362 360 355 350 351 348 345 345 345 342 340 340 339 337
345 347 348 347 345 337 337 333 334 351 362 360 359 360 361 364 361 356 356 351 347 350 349 346 345 345 340 338 340 338 335 333 329

GFSFLT1_850_thetae_027.txt.gz
Theta_e
338 341 342 343 343 344 344 346 346 346 346 346 347 347 347 347 348 348 348 347 347 342 349 348 345 345 349 346 341 335 332 325 324
338 339 341 342 343 343 343 345 345 345 346 346 346 346 347 347 347 348 349 346 345 342 348 345 344 346 347 346 343 335 330 325 321
339 339 340 341 342 342 343 343 343 344 345 345 345 346 346 347 347 348 349 348 340 344 346 346 345 347 347 346 337 332 327 323 319
340 340 340 340 342 342 342 342 344 344 344 345 345 346 346 346 347 348 349 350 341 342 344 344 347 348 347 341 338 334 332 335 324
338 341 341 341 341 341 342 343 343 344 344 344 345 345 346 346 347 348 349 350 347 336 343 343 348 349 348 347 343 343 343 343 341
337 338 341 340 340 340 340 342 343 344 344 343 344 345 346 346 347 348 348 349 349 336 341 343 345 349 349 348 347 343 344 344 344
336 340 342 342 341 340 340 340 341 343 344 344 344 345 346 347 347 347 348 349 349 342 335 340 342 347 348 349 349 347 343 344 344
326 332 340 342 343 343 343 341 342 342 344 344 344 345 346 346 346 346 348 348 349 348 339 336 337 344 348 348 349 349 347 345 344
326 328 334 339 341 343 343 343 343 343 345 345 345 345 344 346 346 346 348 348 348 349 345 338 335 336 339 344 347 347 349 348 347
325 326 328 338 340 340 339 340 341 343 344 345 346 346 346 346 345 345 347 349 349 348 348 346 340 337 337 337 338 342 346 347 348
328 329 331 337 340 340 340 338 340 340 344 345 346 346 347 348 346 345 346 348 348 349 347 345 343 340 338 337 337 338 340 343 350
328 329 332 335 338 338 337 337 337 343 345 345 347 346 346 347 345 346 346 347 348 349 350 348 343 342 342 338 336 335 339 346 352
332 335 334 335 336 336 338 340 342 345 346 346 347 346 346 346 346 347 346 346 347 348 349 348 348 346 343 341 339 340 347 351 353
333 331 331 332 333 334 336 340 344 344 346 346 346 346 346 348 348 348 347 347 349 348 348 350 351 349 347 345 345 349 353 354 354
335 333 333 334 337 333 332 337 344 345 346 342 344 347 347 347 348 348 350 350 352 351 352 353 353 351 351 351 352 354 355 358 356
336 334 333 334 335 338 336 335 345 344 345 343 344 346 347 346 347 349 352 352 351 353 355 355 358 355 353 352 354 354 354 353 354
346 346 343 341 339 341 344 343 340 334 340 345 345 346 345 345 346 348 352 354 355 355 356 356 356 354 350 353 353 351 347 343 347
353 354 353 352 351 351 351 351 351 351 348 340 343 346 346 347 348 350 353 353 354 355 356 356 353 351 350 351 343 346 348 346 342
349 349 348 348 347 347 347 342 338 335 342 355 351 350 348 348 349 350 352 353 356 356 356 356 353 350 348 344 338 339 345 341 339
340 338 337 337 336 335 335 335 335 333 334 333 347 357 355 354 353 352 354 355 354 350 345 337 337 334 333 336 335 341 341 339 339

GFSFLT1_850_thetae_030.txt.gz
Theta_e
341 343 345 346 346 345 345 342 343 345 344 345 345 347 347 347 348 348 348 348 348 345 343 342 345 347 346 346 348 340 339 339 331
338 337 342 344 345 345 345 344 342 342 343 343 344 345 346 346 347 347 348 348 348 348 344 342 348 348 345 343 347 346 340 336 330
337 337 337 340 342 343 344 344 343 343 344 343 343 343 344 345 346 346 346 347 348 347 345 345 341 348 343 345 346 347 343 337 333
335 337 338 338 339 340 341 342 343 343 343 344 344 344 344 345 346 346 346 346 347 348 346 343 341 347 342 344 346 347 342 335 334
331 333 334 338 338 339 341 342 342 342 343 343 343 343 344 345 345 345 346 346 346 347 349 341 342 344 342 345 347 346 337 331 330
331 332 335 338 338 339 340 340 341 342 342 342 342 343 343 344 345 345 345 345 346 347 348 346 340 342 341 345 346 346 341 341 341
328 335 332 335 338 339 339 340 341 341 341 342 342 343 343 343 343 344 344 345 346 346 348 349 339 340 339 342 344 345 345 344 342
330 329 331 331 336 339 340 340 340 341 341 342 342 343 343 342 343 344 344 345 345 345 347 348 345 337 341 339 343 342 344 347 346
324 326 327 326 329 339 341 340 340 340 341 341 342 342 342 343 344 343 343 344 345 346 345 348 348 342 337 340 339 339 341 345 348
324 326 326 326 327 329 336 341 342 341 341 341 342 342 342 343 344 344 343 344 345 346 346 347 348 348 342 337 338 339 341 344 347
326 326 326 326 326 328 330 335 341 342 342 342 343 342 343 344 345 344 345 344 344 345 345 346 346 347 347 344 340 341 341 341 344
325 327 327 328 328 330 335 338 339 342 342 342 343 344 345 344 345 345 345 345 344 345 345 346 345 345 347 347 345 340 339 341 343
326 327 327 328 330 334 336 339 340 340 340 341 341 342 342 343 345 345 346 345 345 345 345 346 347 347 346 345 345 344 344 340 342
326 328 329 333 333 333 335 337 338 338 339 340 339 341 343 345 346 346 346 347 348 347 348 347 348 348 348 348 346 345 344 343 344
333 332 332 334 332 331 332 337 340 341 342 342 343 345 346 347 346 346 347 349 350 352 353 352 352 353 352 349 348 347 344 343 344
340 338 336 337 336 337 337 334 340 343 345 346 346 347 347 347 348 350 352 352 353 350 353 353 354 352 353 352 353 345 347 350 353
354 353 353 351 348 349 349 349 348 345 339 342 344 344 344 346 348 350 353 354 354 354 350 339 348 353 352 353 351 346 351 354 352
348 348 347 347 347 346 344 342 341 339 339 338 340 347 345 346 345 347 350 353 355 354 355 355 356 355 356 355 355 350 350 350 350
345 345 345 344 340 338 336 334 334 333 334 333 333 334 334 337 346 346 348 351 353 355 356 355 356 355 356 353 350 345 337 334 330
336 336 335 335 334 334 335 335 334 334 335 335 335 334 335 340 343 347 348 349 353 354 356 356 356 354 349 344 336 335 334 334 331

GFSFLT1_850_thetae_033.txt.gz
Theta_e
346 347 347 348 348 348 346 346 346 344 343 343 345 347 347 347 346 345 347 348 347 347 347 343 342 343 342 342 346 346 348 336 339
342 344 346 347 347 346 345 345 345 343 341 341 343 343 344 346 347 346 346 347 347 348 348 347 343 343 344 344 345 346 348 339 337
338 340 342 345 347 347 346 345 345 345 342 338 338 342 342 343 344 346 347 346 347 347 348 348 347 344 342 344 345 344 347 346 338
335 337 338 340 342 343 344 346 345 345 345 343 341 339 341 342 343 344 346 346 346 346 347 348 348 346 343 347 342 343 346 347 342
334 337 336 337 337 341 344 345 345 344 344 344 344 342 341 341 341 342 344 345 345 346 346 347 348 345 343 341 345 341 345 346 343
328 328 330 333 337 339 339 340 342 343 342 341 342 343 343 343 343 343 343 344 345 345 346 346 347 347 342 341 344 340 344 346 339
328 328 327 329 332 335 336 338 339 340 341 342 342 343 342 343 343 343 343 343 344 345 345 346 346 348 343 340 341 339 342 345 338
327 328 325 329 332 331 333 337 338 339 340 341 341 342 342 342 342 343 343 343 343 344 345 345 345 347 348 339 340 339 339 344 343
327 327 325 330 328 331 330 334 337 339 339 340 341 341 341 342 342 343 343 343 343 343 344 344 345 346 347 347 336 336 336 340 343
328 326 325 326 326 327 326 326 329 336 339 340 340 341 341 342 342 343 343 343 343 343 343 344 345 345 346 347 343 334 335 335 342
327 326 326 327 327 326 326 326 327 330 338 340 340 341 341 342 342 343 343 343 343 343 343 343 344 345 345 346 346 338 333 336 340
325 325 326 326 327 326 327 327 327 331 337 340 340 340 341 341 341 342 343 344 343 343 343 344 344 345 346 344 344 344 343 338 338
325 325 325 326 326 326 327 328 331 333 336 338 340 341 342 342 342 343 344 343 344 345 345 344 344 344 345 345 344 342 342 346 345
325 326 325 325 326 326 329 335 334 336 338 339 340 341 342 343 345 345 346 348 349 350 350 351 346 346 344 344 345 346 343 345 348
327 328 328 328 328 330 332 333 335 337 339 340 340 340 341 342 342 345 348 349 350 350 351 354 351 349 348 350 346 346 347 347 348
343 338 335 335 333 331 331 334 339 339 340 341 342 343 344 344 345 346 349 350 351 350 347 352 353 353 350 346 346 345 346 347 348
351 345 343 346 346 341 338 336 336 338 340 340 341 343 344 345 346 347 350 353 351 351 354 354 353 354 352 350 351 350 349 351 351
349 347 346 344 343 343 343 342 342 341 341 339 339 341 343 344 344 344 346 349 352 345 343 354 354 351 353 353 352 350 351 353 355
343 341 339 339 338 337 335 335 334 334 334 333 333 333 333 334 336 340 346 350 347 351 352 354 354 354 353 353 350 350 352 353 355
338 338 338 338 338 338 338 337 336 335 335 335 335 334 334 334 335 337 341 346 347 349 352 353 355 353 353 355 355 355 355 348 340

GFSFLT1_850_thetae_036.txt.gz
Theta_e
342 347 349 349 350 352 352 351 349 350 350 345 346 346 345 345 345 348 351 352 353 354 351 350 351 352 344 344 344 344 345 349 343
337 345 348 349 350 351 353 354 353 351 346 339 343 345 346 347 346 346 352 351 350 354 353 352 353 352 344 349 342 341 344 348 342
336 340 346 347 349 350 352 353 354 354 345 340 336 340 343 345 347 347 347 347 347 349 353 351 353 353 349 351 349 343 343 349 348
336 339 343 346 346 347 349 351 353 354 355 348 344 340 338 340 342 344 344 346 346 346 347 349 348 349 347 350 352 348 341 345 351
335 336 338 341 343 345 347 349 350 351 353 355 353 344 340 337 338 340 341 342 344 345 346 346 347 348 348 347 348 352 342 339 349
334 335 338 340 341 341 344 347 350 350 351 352 353 353 347 343 338 339 341 340 340 342 344 346 346 346 348 347 346 346 346 338 340
332 334 335 336 338 339 340 343 346 349 349 350 352 353 354 351 343 340 339 339 339 341 343 345 345 346 346 348 344 340 340 339 338
329 331 334 335 338 339 344 344 346 349 350 349 350 352 354 353 343 343 342 341 341 342 343 343 345 345 346 346 348 344 337 335 335
329 330 329 330 333 341 344 341 343 348 349 348 349 350 350 352 350 345 343 344 344 343 343 343 344 345 345 346 347 349 338 332 333
329 330 330 331 332 336 339 341 332 336 334 347 348 345 347 348 349 346 344 347 347 344 343 344 344 344 345 345 345 346 342 332 331
328 328 328 331 331 332 334 337 337 340 346 340 340 342 345 342 345 345 348 348 344 344 345 345 344 344 344 345 345 345 345 345 337
329 329 330 331 331 331 332 334 335 337 343 348 347 340 340 342 343 352 356 350 348 353 356 355 354 355 349 344 345 344 344 345 347
329 329 330 330 330 331 332 330 333 336 342 346 343 334 342 345 344 346 346 346 351 352 357 357 357 357 352 347 345 345 343 343 346
336 335 333 333 334 333 333 330 329 328 339 343 344 352 353 352 343 343 344 345 346 347 346 354 355 356 356 352 345 347 345 344 344
341 339 333 335 338 334 333 332 330 333 335 340 346 352 354 353 347 352 356 350 349 350 355 354 353 347 346 345 343 345 347 344 345
344 338 338 343 340 341 333 330 332 335 336 343 348 348 345 352 356 355 354 355 356 358 357 356 357 358 354 355 358 353 349 346 345
343 346 351 351 353 350 350 338 342 341 338 339 340 341 345 352 356 356 356 358 359 359 359 358 357 357 354 352 351 357 358 354 350
349 354 355 356 356 354 353 353 353 352 344 343 348 349 355 357 356 353 357 354 359 359 358 358 358 356 354 354 354 359 359 356 355
353 351 349 348 347 346 344 343 342 342 346 355 354 353 353 353 353 356 357 358 359 357 357 356 353 349 348 356 358 359 359 357 357
350 350 350 346 344 346 348 344 339 335 334 334 335 347 345 351 348 349 350 354 355 357 357 354 354 357 357 355 355 357 358 356 355